Regional Weather Roundup
Issued by NWS

Home | Current Version | Previous Version | Text Only | Print | Product List | Glossary On
Versions: 1 2 3 4 5 6 7 8 9 10 11 12 13 14 15 16 17 18 19 20 21 22 23 24 25 26 27 28 29 30 31 32 33 34 35 36 37 38 39 40 41 42 43 44 45 46 47 48 49 50
000
ASUS43 KDTX 221601
RWRMI
MICHIGAN HOURLY REGIONAL WEATHER ROUNDUP
NATIONAL WEATHER SERVICE DETROIT/PONTIAC MI
1200 PM EDT WED OCT 22 2014

NOTE: "FAIR" INDICATES FEW OR NO CLOUDS BELOW 12,000 FEET WITH NO
SIGNIFICANT WEATHER AND/OR OBSTRUCTION TO VISIBILITY.

MIZ047>049-052>055-059>063-066>070-074>076-081>083-221700-
SOUTHEAST LOWER MICHIGAN

CITY           SKY/WX    TMP DP  RH WIND       PRES   REMARKS
ADRIAN         CLOUDY    45  38  76 N12       30.35S
ALMA           CLOUDY    46  38  74 N7        30.38S
ANN ARBOR      CLOUDY    48  38  68 N10       30.34S
BAD AXE        CLOUDY    47  41  79 N9        30.37S
CARO           CLOUDY    47  39  74 NE5       30.37R
DETROIT CITY   MOSUNNY   54  39  57 NE13      30.33F
DETROIT        PTSUNNY   51  40  65 N9        30.33F
FLINT          CLOUDY    48  39  71 NE9       30.38R
GROSSE ILE     PTSUNNY   50  41  71 N12       30.31F
HILLSDALE      CLOUDY    44  40  85 N7        30.34S
HOWELL         CLOUDY    45  38  79 NE6       30.35S

CITY           SKY/WX    TMP DP  RH WIND       PRES   REMARKS
JACKSON        CLOUDY    45  38  76 NE5       30.36R
LAMBERTVILLE   CLOUDY    48  39  71 N6        30.34S
LANSING        CLOUDY    46  38  73 E9        30.37F
LAPEER         CLOUDY    47  38  71 NE8       30.35S
MASON          CLOUDY    44  38  79 E8        30.37S
MONROE         CLOUDY    48  41  76 N9        30.31F
MT. CLEMENS    MOSUNNY   53  40  62 N13G18    30.30F
PONTIAC        PTSUNNY   47  37  68 NE13      30.33S
PORT HOPE        N/A     47  39  74 N10       30.36R
PORT HURON     PTSUNNY   50  41  71 NE12      30.33R
TRI CITIES     CLOUDY    47  38  71 N9        30.39R
TROY           MOSUNNY   52  40  63 N7        30.34F
SAGINAW HB     CLOUDY    46  39  76 NE8       30.37S
$$
MIZ043>046-050>051-056>058-064>065-071>073-077>080-221700-
SOUTHWEST LOWER MICHIGAN

CITY           SKY/WX    TMP DP  RH WIND       PRES   REMARKS
BATTLE CREEK   CLOUDY    44  37  76 NE9       30.38R
BENTON HARBOR  SUNNY     47  37  68 VRB5      30.38S
BIG RAPIDS     CLOUDY    42  37  82 N3        30.39S
COLDWATER      CLOUDY    45  40  82 NE6       30.36S
FREMONT        FAIR      44  34  67 E3        30.40S
HOLLAND        MOSUNNY   48  37  65 E5        30.40R
GRAND RAPIDS   PTSUNNY   46  37  71 E9        30.39S
IONIA          CLOUDY    45  39  79 N5        30.37S
KALAMAZOO      CLOUDY    43  36  76 NE3       30.39R
LUDINGTON      SUNNY     42  35  77 E3        30.40S
MARSHALL       CLOUDY    42  37  81 E3        30.36S
MOUNT PLEASANT CLOUDY    45  37  73 NW3       30.38S
MUSKEGON       SUNNY     47  34  60 E6        30.39S
SOUTH HAVEN    SUNNY     47  37  67 E8        30.38S
$$
MIZ016>042-221700-
NORTHERN LOWER MICHIGAN

CITY           SKY/WX    TMP DP  RH WIND       PRES   REMARKS
ALPENA         MOSUNNY   44  33  65 CALM      30.40S
BEAVER ISLAND  SUNNY     46  35  66 E8        30.41F
BELLAIRE       PTSUNNY   38  32  78 CALM      30.43S
CADILLAC       CLOUDY    36  33  89 SE5       30.38S WCI  32
CHARLEVOIX     SUNNY     42  34  71 E7        30.45S
FRANKFORT      SUNNY     43  32  65 E5        30.41S
GAYLORD        MOSUNNY   40  31  70 N5        30.39S
GRAYLING       CLOUDY    38  33  82 E5        30.41S WCI  34
HARBOR SPRINGS PTSUNNY   44  33  65 E5        30.42S
HOUGHTON LAKE  CLOUDY    40  33  76 NE7       30.40S
MANISTEE       SUNNY     41  32  70 E5        30.41S
OSCODA         CLOUDY    45  37  74 NE9       30.39R
PELLSTON       MOSUNNY   42  32  67 E3        30.42S
TRAVERSE CITY  PTSUNNY   39  32  76 CALM      30.41F
$$
MIZ007>008-015-221700-
EASTERN UPPER MICHIGAN

CITY           SKY/WX    TMP DP  RH WIND       PRES   REMARKS
KINROSS        SUNNY     43  34  70 CALM      30.42R
MACKINAC ISLAN MOSUNNY   43  34  71 NE3       30.42S
NEWBERRY       SUNNY     42  35  76 SE5       30.40F
S. S. MARIE    SUNNY     43  31  62 SE3       30.42S
$$
MIZ004>006-011>014-085-221700-
CENTRAL UPPER MICHIGAN

CITY           SKY/WX    TMP DP  RH WIND       PRES   REMARKS
MANISTIQUE     CLOUDY    46  38  75 SE8       30.40S
ESCANABA       CLOUDY    46  36  66 S5        30.39S
MENOMINEE      PTSUNNY   46  36  66 S8        30.39S
SAWYER-GWINN   FOG       37  36  93 S8        30.36S VSB 1/4 WCI  31
$$
MIZ001>003-009>011-084-221700-
WESTERN UPPER MICHIGAN

CITY           SKY/WX    TMP DP  RH WIND       PRES   REMARKS
IRON MOUNTAIN  FOG       35  34  96 VRB3      30.37R VSB 1/4
HOUGHTON       SUNNY     42  33  70 S10       30.31S
COPPER HARBOR    N/A    N/A N/A N/A MISG      30.32S
IRONWOOD       SUNNY     46  30  53 S10G23    30.24F
$$

ABBREVIATIONS USED IN REMARKS
   TC - TEMPERATURE IN CELSIUS
  WCI - WIND CHILL INDEX
   HX - HEAT INDEX
  VSB - VISIBILITY




USA.gov is the U.S. government's official web portal to all federal, state and local government web resources and services.